User: anonymous   Login
Location: S�deilles
(46.7500°N, 6.9329°E)
Time: 04:36:43
(UTC+00:00)
Language:

CZ-4B R/B - Orbit

View from above orbital plane
View from above orbital plane
View from above satellite
View from above satellite

Ground track
Ground track

The orbit data is extracted from the following two-line orbital elements,

1 29093U 06015B   21134.29617843  .00005519  00000-0  99988-4 0  9993
2 29093  97.6342 324.7128 0049407 200.6225 159.3032 15.48734523837647
Epoch (UTC): 14 May 2021 07:06:29
Eccentricity: 0.0049407
inclination: 97.6342°
perigee height: 387 km
apogee height: 454 km
right ascension of ascending node: 324.7128°
argument of perigee: 200.6225°
revolutions per day: 15.48734523
mean anomaly at epoch: 159.3032°
orbit number at epoch: 83764

The dashed part of the orbit path shows where the satellite is in the earth's shadow,  

DLR